Regional Weather Roundup
Issued by NWS

Home | Current Version | Previous Version | Graphics & Text | Print | Product List | Glossary On
Versions: 1 2 3 4 5 6 7 8 9 10 11 12 13 14 15 16 17 18 19 20 21 22 23 24 25 26 27 28 29 30 31 32 33 34 35 36 37 38 39 40 41 42 43 44 45 46 47 48 49 50
000
ASUS45 KSLC 270910
RWRUT

UTAH REGIONAL WEATHER ROUNDUP
NATIONAL WEATHER SERVICE SALT LAKE CITY UT
200 AM MST FRI FEB 27 2015

UTZ001>011-023>025-271000-

NORTHERN UTAH

CITY           SKY/WX    TMP DP  RH WIND       PRES   REMARKS
BRIGHAM CITY   CLOUDY    28  22  81 W5        29.88S WCI  22
HILL AFB       CLOUDY    29  23  78 SE6       29.86F WCI  23
LOGAN          MOCLDY    23  18  81 CALM      29.88S
OGDEN          CLOUDY    29  25  85 S7        29.87S WCI  22
PROVO AIRPORT  PTCLDY    30  27  86 N3        29.89S
SALT LAKE CITY PTCLDY    29  27  92 S5        29.88S WCI  24
VERNAL         CLOUDY    26  13  57 E7        29.88S WCI  18
WENDOVER       CLOUDY    37  27  65 SE6       29.88S WCI  33
HEBER CITY     CLEAR     25  19  80 CALM      29.85S
WEST JORDAN    CLEAR     28  27  93 SW7       29.88F WCI  21

$$

UTZ012>022-026-027-271000-

SOUTHERN/CENTRAL UTAH

CITY           SKY/WX    TMP DP  RH WIND       PRES   REMARKS
BLANDING       CLOUDY    23  23  97 CALM      29.92R
BRYCE CANYON   CLEAR     11   8  88 NW8       29.85F WCI  -1
CEDAR CITY     PTCLDY    28  23  81 NE7       29.85F WCI  21
DELTA          PTCLDY    28  24  82 S6        29.89R WCI  22
HANKSVILLE     CLEAR     25  25 100 CALM      29.87F
MILFORD        CLOUDY    30  23  75 CALM      29.88S
MOAB/CYNLANDS  CLOUDY    34  32  92 CALM      29.83S
PRICE          MOCLDY    24  21  88 N6        29.82F WCI  17
ST GEORGE      MOSUNNY   46  28  49 CALM      29.86F
KANAB            N/A     32  25  74 CALM      29.90S

$$

REGIONAL REPORTS     COLORADO/ARIZONA

CITY           SKY/WX    TMP DP  RH WIND       PRES   REMARKS
CRAIG, CO      CLOUDY    16  10  77 SW9       29.87S WCI   4
GRAND JUNCTION CLOUDY    32  28  85 N3        29.83S
RIFLE          CLOUDY    30  25  81 NW3       29.82F
MONTROSE       CLOUDY    27  21  78 SE8       29.85S WCI  19
CORTEZ         CLOUDY    29  27  92 CALM      29.85F
PAGE, AZ       CLOUDY    39  30  70 SW6       29.85S WCI  35
GRAND CANYON   MOCLDY    21  19  92 CALM      29.87R
KINGMAN        CLEAR     38  26  62 CALM      29.79F
FLAGSTAFF      CLEAR     22  16  78 CALM      29.87S

$$

REGIONAL REPORTS    NEVADA/IDAHO/WYOMING

CITY           SKY/WX    TMP DP  RH WIND       PRES   REMARKS
LAS VEGAS, NV  PTCLDY    55  23  28 E9        29.77S
ELY            MOCLDY    18  12  77 S6        29.87F WCI  10
ELKO           CLOUDY    31  28  89 CALM      29.86F
POCATELLO, ID  CLOUDY    30  23  75 CALM      29.86F
BURLEY         CLOUDY    34  30  85 SW5       29.83F WCI  30
EVANSTON, WY   CLOUDY    15  12  88 E10       29.84F WCI   2
ROCK SPRINGS   PTCLDY     3  -1  83 E7        29.91S WCI  -9

$$


USA.gov is the U.S. government's official web portal to all federal, state and local government web resources and services.